EDT,Max TemperatureF,Mean TemperatureF,Min TemperatureF,Max Dew PointF,MeanDew PointF,Min DewpointF,Max Humidity, Mean Humidity, Min Humidity, Max Sea Level PressureIn, Mean Sea Level PressureIn, Min Sea Level PressureIn, Max VisibilityMiles, Mean VisibilityMiles, Min VisibilityMiles, Max Wind SpeedMPH, Mean Wind SpeedMPH, Max Gust SpeedMPH,PrecipitationIn, CloudCover, Events, WindDirDegrees
2012-10-1,83,78,72,75,73,71,100,85,69,29.79,29.72,29.67,10,8,1,18,8,24,0.50,5,Rain-Thunderstorm,161
2012-10-2,82,75,68,72,68,64,100,79,58,30.02,29.83,29.72,10,9,2,16,5,22,T,6,Rain,240
2012-10-3,76,72,67,68,65,64,93,81,69,30.21,30.12,30.03,10,10,9,9,2,12,T,5,Rain,80
2012-10-4,80,74,67,71,68,64,100,86,71,30.27,30.22,30.17,10,10,9,8,3,12,0.00,6,,56
2012-10-5,79,74,68,70,68,65,100,81,62,30.19,30.13,30.05,10,8,2,9,3,10,T,5,,26
2012-10-6,88,78,67,72,67,63,100,73,45,30.05,30.00,29.92,10,8,3,9,2,18,0.00,3,Rain,330
2012-10-7,85,75,64,66,64,60,93,72,51,30.06,30.01,29.97,10,9,5,13,4,16,0.00,1,,334
2012-10-8,80,69,58,65,58,51,87,72,56,30.12,30.06,30.01,10,10,9,14,5,16,0.00,5,,13
2012-10-9,70,63,56,59,56,54,93,80,66,30.17,30.12,30.09,10,8,5,13,4,17,0.00,5,,80
2012-10-10,81,67,53,63,56,52,100,73,45,30.19,30.14,30.09,10,4,0,12,3,25,0.00,4,Fog,325
2012-10-11,82,69,55,61,57,53,100,71,42,30.28,30.22,30.17,10,9,4,10,2,20,0.00,0,,31
2012-10-12,86,71,56,66,60,55,100,73,45,30.28,30.22,30.17,10,9,5,13,3,23,0.00,0,,324
2012-10-13,83,73,62,63,60,58,93,68,43,30.32,30.25,30.21,10,10,10,16,7,21,0.00,1,,76
2012-10-14,84,72,60,67,63,59,97,74,51,30.24,30.15,30.05,10,10,7,9,4,13,0.00,1,,94
2012-10-15,85,74,62,70,64,54,100,74,47,30.04,29.97,29.85,10,6,0,15,5,21,0.00,4,Fog,275
2012-10-16,77,64,50,54,48,43,86,59,31,30.01,29.94,29.90,10,10,10,14,3,24,0.00,0,,12
2012-10-17,80,68,56,56,52,45,87,59,30,29.99,29.92,29.85,10,10,8,12,3,15,0.00,0,,135
2012-10-18,76,66,55,68,63,53,100,90,79,29.88,29.85,29.82,10,9,3,21,4,26,0.01,5,Rain,220
2012-10-19,78,64,50,66,53,33,100,61,21,29.94,29.87,29.83,10,6,0,13,3,17,0.00,1,Fog,265
2012-10-20,77,61,45,50,45,41,93,62,31,30.01,29.95,29.90,10,10,10,16,3,21,0.00,0,,293
2012-10-21,81,64,46,49,46,43,93,60,26,30.15,30.10,30.02,10,10,10,12,3,30,0.00,0,,16
2012-10-22,82,66,49,54,48,44,93,61,28,30.23,30.16,30.11,10,10,10,14,3,18,0.00,0,,68
2012-10-23,82,65,47,59,53,46,93,68,42,30.19,30.13,30.08,10,10,8,12,2,15,0.00,1,,100
2012-10-24,85,71,56,63,58,55,100,70,40,30.18,30.11,30.04,10,9,5,17,4,25,0.00,1,,63
2012-10-25,86,73,59,65,60,58,97,70,43,30.07,30.02,29.96,10,10,6,16,4,23,0.00,2,,83
2012-10-26,86,75,63,64,59,51,100,66,32,30.01,29.93,29.86,10,10,8,16,7,26,0.00,0,,20
2012-10-27,80,68,56,60,57,52,84,66,48,29.86,29.80,29.73,10,10,10,17,9,24,0.00,0,,335
2012-10-28,60,55,50,51,46,36,89,72,54,29.90,29.84,29.80,10,10,10,25,11,33,0.00,5,,311
2012-10-29,64,54,43,37,30,23,76,49,21,29.94,29.88,29.81,10,10,10,25,12,32,0.00,0,,310
2012-10-30,64,52,39,31,25,19,64,42,19,29.95,29.86,29.80,10,10,10,24,11,35,0.00,0,,282
2012-10-31,73,57,41,44,38,31,76,53,29,30.01,29.96,29.90,10,10,10,23,7,30,0.00,0,,264